Pagina principale
METAR-TAF:

METAR-TAF

Aeroporti :

Kahmishli, Siria

latitudine: 37-03N, longitudine: 041-13E, altezza: 455 m

Osservazione

Il bollettino è stato emesso 46 minuti fa, alle 06:00 UTC
Vento 5 kt da nord
Temperature 11°C
Umidità 30%
Pressione 1023 hPa
Visibilità: 8000 m

METAR: OSKL 180600Z 01005KT 8000 11/M06 Q1023

Ora: 08:46 (06:46 UTC)


TAF: mancante

Osservazioni e previsioni meteorologiche di più di 4000 aeroporti (messaggi METAR e TAF).

Le stazioni disponibili sono rappresentate dai dischi gialli e rossi sulla carta.

Puntare il mouse per vedere il nome della stazione.

Clicca sopra per visualizzare le osservazioni e previsioni meteorologiche.

Per cambiare la mappa : fare clic sui pulsanti verdi con una croce nera per ingrandire, il pulsante verde con un trattino per diminuire, o sulla freccia verde per le mappe adiacenti.


METAR-TAF: